EW0597 Weather Reports


time (UTC)temp
C
wind
direction
speed
KPH
gust
KPH
rain 1hr
cm
rain 24hr
cm
rain mn
cm
humidity
%
barometer
mb
20260506021508 15 272 0.0 11.3 0.00 0.03 0.03 77 1015.7
20260506020009 15 278 1.6 8.0 0.00 0.03 0.03 76 1015.7
20260506014515 15 329 1.6 12.9 0.00 0.03 0.03 75 1015.6
20260506013007 15 292 0.0 8.0 0.00 0.03 0.03 75 1015.7
20260506011513 15 267 1.6 4.8 0.00 0.03 0.03 75 1015.6
20260506010010 16 249 1.6 9.7 0.00 0.03 0.03 75 1015.5
20260506004507 16 277 0.0 9.7 0.00 0.03 0.03 75 1015.5
20260506003005 16 289 0.0 8.0 0.00 0.03 0.03 75 1015.5
20260506001503 16 348 0.0 14.5 0.00 0.03 0.03 74 1015.3
20260506000004 16 265 0.0 9.7 0.00 0.03 0.03 74 1015.2
20260505234508 16 265 0.0 12.9 0.00 0.03 0.03 74 1015.2
20260505233002 17 205 3.2 9.7 0.00 0.03 0.03 72 1015.2
20260505231503 17 317 0.0 6.4 0.00 0.03 0.03 70 1015.2
20260505230002 17 227 0.0 6.4 0.00 0.03 0.03 69 1015.2
20260505224502 17 268 0.0 4.8 0.00 0.03 0.03 68 1015.1
20260505223113 17 218 0.0 4.8 0.00 0.03 0.03 67 1015.3
20260505221603 17 240 0.0 6.4 0.00 0.03 0.03 68 1015.3
20260505220100 17 277 0.0 9.7 0.00 0.03 0.03 68 1015.4
20260505214603 17 329 0.0 6.4 0.00 0.03 0.03 69 1015.4
20260505213056 17 283 0.0 4.8 0.00 0.03 0.03 69 1015.7
20260505211620 17 309 0.0 9.7 0.00 0.03 0.03 69 1015.7
20260505210055 17 300 0.0 3.2 0.00 0.03 0.03 68 1015.6
20260505204555 17 355 1.6 6.4 0.00 0.03 0.03 68 1015.6
20260505203113 17 328 0.0 6.4 0.00 0.03 0.03 67 1015.6
20260505201648 17 355 0.0 14.5 0.00 0.03 0.03 69 1015.7
20260505200045 17 298 0.0 9.7 0.00 0.03 0.03 70 1015.9
20260505194543 16 275 1.6 8.0 0.00 0.03 0.03 72 1016.0
20260505193038 16 288 0.0 6.4 0.00 0.03 0.03 76 1016.2
20260505191543 16 263 0.0 6.4 0.00 0.03 0.03 78 1016.2
20260505190036 15 268 0.0 6.4 0.00 0.03 0.03 77 1016.2
20260505184544 15 262 0.0 8.0 0.00 0.03 0.03 78 1016.0
20260505183038 15 319 0.0 8.0 0.00 0.03 0.03 79 1016.2
20260505181528 15 274 0.0 11.3 0.00 0.03 0.03 81 1016.1
20260505180027 14 261 0.0 1.6 0.00 0.03 0.03 82 1016.1
20260505174522 14 262 0.0 1.6 0.00 0.03 0.03 82 1016.0
20260505173019 14 296 0.0 3.2 0.00 0.03 0.03 80 1015.8
20260505171518 13 263 0.0 0.0 0.00 0.03 0.03 79 1015.7
20260505170023 13 263 0.0 0.0 0.00 0.03 0.03 81 1015.7
20260505164514 13 263 0.0 3.2 0.00 0.03 0.03 82 1015.6
20260505163013 13 263 0.0 1.6 0.00 0.03 0.03 84 1015.6
20260505161511 13 265 0.0 0.0 0.00 0.03 0.03 85 1015.6
20260505153007 12 265 0.0 0.0 0.00 0.03 0.03 90 1015.3
20260505151504 12 265 0.0 0.0 0.00 0.03 0.03 91 1015.2
20260505140125 11 265 0.0 0.0 0.00 0.03 0.03 91 1014.9
20260505124601 11 265 0.0 0.0 0.00 0.03 0.03 91 1014.8
20260505123057 11 265 0.0 0.0 0.00 0.03 0.03 91 1014.9
20260505121555 11 265 0.0 0.0 0.00 0.03 0.03 91 1014.8
20260505120107 11 265 0.0 0.0 0.00 0.03 0.03 91 1014.6
20260505114557 11 265 0.0 0.0 0.00 0.03 0.03 91 1014.8
20260505113102 11 265 0.0 0.0 0.00 0.03 0.03 91 1014.9
20260505111554 11 265 0.0 0.0 0.03 0.03 0.03 91 1014.9
20260505101554 11 266 0.0 0.0 0.00 0.00 0.00 89 1014.8
20260505100045 11 265 0.0 0.0 0.00 0.00 0.00 88 1014.9
20260505094547 11 265 0.0 0.0 0.00 0.00 0.00 87 1014.9
20260505093051 11 266 0.0 1.6 0.00 0.00 0.00 86 1015.0
20260505091539 11 266 0.0 0.0 0.00 0.00 0.00 83 1014.9
20260505090037 11 266 0.0 0.0 0.00 0.00 0.00 82 1015.2
20260505084536 11 266 0.0 0.0 0.00 0.00 0.00 82 1015.4
20260505083039 11 266 0.0 4.8 0.00 0.00 0.00 81 1015.6
20260505081531 12 269 0.0 3.2 0.00 0.00 0.00 80 1015.7
20260505080034 12 288 0.0 3.2 0.00 0.00 0.00 78 1015.7
20260505074529 12 289 0.0 4.8 0.00 0.00 0.00 77 1015.8
20260505073028 12 304 1.6 9.7 0.00 0.00 0.00 78 1015.8
20260505071525 12 298 0.0 4.8 0.00 0.00 0.00 81 1015.7
20260505070026 12 327 0.0 6.4 0.00 0.00 0.00 81 1015.4
20260505064522 12 298 0.0 0.0 0.00 0.00 0.00 82 1015.3
20260505063021 12 298 0.0 1.6 0.00 0.00 0.00 81 1015.3
20260505061523 12 298 0.0 3.2 0.00 0.00 0.00 81 1015.1
20260505060020 12 286 0.0 8.0 0.00 0.00 0.00 80 1015.1
20260505054522 12 285 0.0 6.4 0.00 0.00 0.00 81 1015.2
20260505053024 12 333 0.0 9.7 0.00 0.00 0.00 81 1015.4
20260505051519 13 342 1.6 12.9 0.00 0.00 0.00 82 1015.5
20260505041516 13 308 0.0 6.4 0.00 0.00 0.00 80 1015.1
20260505040030 13 343 0.0 11.3 0.00 0.00 0.00 79 1014.9
20260505034518 13 347 0.0 8.0 0.00 0.00 0.00 78 1014.8
20260505033015 13 319 0.0 9.7 0.00 0.00 0.00 76 1014.5
20260505031512 13 325 1.6 12.9 0.00 0.00 0.00 75 1014.4
20260505030016 13 38 0.0 6.4 0.00 0.00 0.00 73 1014.3
20260505024511 14 315 0.0 3.2 0.00 0.00 0.00 70 1014.3
20260505023012 15 273 0.0 6.4 0.00 0.00 0.00 68 1014.2